Time,TemperatureF,DewpointF,PressureIn,WindDirection,WindDirectionDegrees,WindSpeedMPH,WindSpeedGustMPH,Humidity,HourlyPrecipIn,Conditions,Clouds,dailyrainin,SoftwareType,DateUTC
2013-06-13 00:00:00,78.0,69.1,29.73,South,180,4.0,10.0,74,0.00,,---,0.00,VWS V14.01,2013-06-13 04:00:00,
2013-06-13 00:22:00,78.0,69.8,29.73,SW,225,5.0,10.0,76,0.00,,---,0.00,VWS V14.01,2013-06-13 04:22:00,
2013-06-13 00:27:00,78.0,69.8,29.73,SSE,157,5.0,10.0,76,0.00,,---,0.00,VWS V14.01,2013-06-13 04:27:00,
2013-06-13 00:32:00,78.0,69.8,29.72,SSE,157,12.0,15.0,76,0.00,,---,0.00,VWS V14.01,2013-06-13 04:32:00,
2013-06-13 00:37:00,78.0,69.8,29.72,SSW,202,6.0,10.0,76,0.00,,---,0.00,VWS V14.01,2013-06-13 04:37:00,
2013-06-13 00:42:00,78.0,69.8,29.71,South,180,5.0,11.0,76,0.00,,---,0.00,VWS V14.01,2013-06-13 04:42:00,
2013-06-13 00:48:00,78.0,69.8,29.71,SSE,157,7.0,10.0,76,0.00,,---,0.00,VWS V14.01,2013-06-13 04:48:00,
2013-06-13 00:53:00,78.0,69.8,29.71,SW,225,1.0,10.0,76,0.00,,---,0.00,VWS V14.01,2013-06-13 04:53:00,
2013-06-13 00:58:00,78.0,69.8,29.71,SSE,157,5.0,10.0,76,0.00,,---,0.00,VWS V14.01,2013-06-13 04:58:00,
2013-06-13 01:03:00,78.0,69.8,29.70,SSW,202,6.0,12.0,76,0.00,,---,0.00,VWS V14.01,2013-06-13 05:03:00,
2013-06-13 01:08:00,78.0,69.8,29.70,SSW,202,5.0,14.0,76,0.00,,---,0.00,VWS V14.01,2013-06-13 05:08:00,
2013-06-13 01:13:00,78.0,69.8,29.69,SSW,202,5.0,10.0,76,0.00,,---,0.00,VWS V14.01,2013-06-13 05:13:00,
2013-06-13 01:18:00,78.0,69.8,29.69,SSW,202,11.0,13.0,76,0.00,,---,0.00,VWS V14.01,2013-06-13 05:18:00,
2013-06-13 01:23:00,78.0,70.2,29.69,SSW,202,5.0,12.0,77,0.00,,---,0.00,VWS V14.01,2013-06-13 05:23:00,
2013-06-13 01:28:00,78.0,69.8,29.68,SSW,202,6.0,13.0,76,0.00,,---,0.00,VWS V14.01,2013-06-13 05:28:00,
2013-06-13 01:33:00,78.0,69.8,29.68,SE,135,6.0,12.0,76,0.00,,---,0.00,VWS V14.01,2013-06-13 05:33:00,
2013-06-13 01:38:00,78.0,69.8,29.68,SW,225,9.0,17.0,76,0.00,,---,0.00,VWS V14.01,2013-06-13 05:38:00,
2013-06-13 01:43:00,78.0,69.8,29.68,WSW,247,11.0,14.0,76,0.00,,---,0.00,VWS V14.01,2013-06-13 05:43:00,
2013-06-13 01:48:00,78.0,69.8,29.67,SW,225,6.0,15.0,76,0.00,,---,0.00,VWS V14.01,2013-06-13 05:48:00,
2013-06-13 01:54:00,78.0,69.8,29.67,WSW,247,10.0,13.0,76,0.00,,---,0.00,VWS V14.01,2013-06-13 05:54:00,
2013-06-13 01:59:00,78.0,69.8,29.67,WSW,247,4.0,9.0,76,0.00,,---,0.00,VWS V14.01,2013-06-13 05:59:00,
2013-06-13 02:04:00,78.0,69.8,29.67,WNW,292,6.0,15.0,76,0.00,,---,0.00,VWS V14.01,2013-06-13 06:04:00,
2013-06-13 02:09:00,75.0,61.6,29.68,North,360,8.0,16.0,63,0.00,,---,0.00,VWS V14.01,2013-06-13 06:09:00,
2013-06-13 02:14:00,72.0,61.7,29.68,NW,315,9.0,13.0,70,0.00,,---,0.00,VWS V14.01,2013-06-13 06:14:00,
2013-06-13 02:19:00,70.0,62.8,29.71,NW,315,8.0,23.0,78,0.00,,---,0.00,VWS V14.01,2013-06-13 06:19:00,
2013-06-13 02:24:00,69.0,62.9,29.71,North,360,7.0,12.0,81,0.00,,---,0.00,VWS V14.01,2013-06-13 06:24:00,
2013-06-13 02:29:00,68.0,63.0,29.69,North,360,13.0,16.0,84,0.00,,---,0.00,VWS V14.01,2013-06-13 06:29:00,
2013-06-13 02:34:00,67.0,63.7,29.69,North,360,11.0,17.0,89,0.00,,---,0.00,VWS V14.01,2013-06-13 06:34:00,
2013-06-13 02:39:00,66.0,63.3,29.70,NNW,337,12.0,19.0,91,0.00,,---,0.00,VWS V14.01,2013-06-13 06:39:00,
2013-06-13 02:44:00,65.0,63.5,29.70,NNE,22,7.0,12.0,95,0.02,,---,0.02,VWS V14.01,2013-06-13 06:44:00,
2013-06-13 02:49:00,65.0,64.1,29.71,North,360,4.0,11.0,97,0.04,,---,0.04,VWS V14.01,2013-06-13 06:49:00,
2013-06-13 02:55:00,64.0,63.7,29.71,North,360,3.0,12.0,99,0.06,,---,0.06,VWS V14.01,2013-06-13 06:55:00,
2013-06-13 03:00:00,64.0,64.0,29.72,NNE,22,4.0,10.0,100,0.06,,---,0.06,VWS V14.01,2013-06-13 07:00:00,
2013-06-13 03:05:00,64.0,64.0,29.72,NE,45,1.0,5.0,100,0.06,,---,0.06,VWS V14.01,2013-06-13 07:05:00,
2013-06-13 03:10:00,64.0,64.0,29.72,North,360,8.0,8.0,100,0.06,,---,0.06,VWS V14.01,2013-06-13 07:10:00,
2013-06-13 03:15:00,64.0,64.0,29.72,NNE,22,6.0,6.0,100,0.06,,---,0.06,VWS V14.01,2013-06-13 07:15:00,
2013-06-13 03:20:00,64.0,64.0,29.70,NNE,22,0.0,10.0,100,0.07,,---,0.07,VWS V14.01,2013-06-13 07:20:00,
2013-06-13 03:25:00,64.0,64.0,29.70,NNW,337,5.0,5.0,100,0.07,,---,0.07,VWS V14.01,2013-06-13 07:25:00,
2013-06-13 03:30:00,64.0,64.0,29.69,SE,135,3.0,8.0,100,0.07,,---,0.07,VWS V14.01,2013-06-13 07:30:00,
2013-06-13 03:35:00,64.0,64.0,29.69,NNW,337,6.0,7.0,100,0.07,,---,0.07,VWS V14.01,2013-06-13 07:35:00,
2013-06-13 03:40:00,64.0,64.0,29.69,ESE,112,0.0,7.0,100,0.07,,---,0.07,VWS V14.01,2013-06-13 07:40:00,
2013-06-13 03:45:00,64.0,64.0,29.69,ESE,112,6.0,7.0,100,0.07,,---,0.08,VWS V14.01,2013-06-13 07:45:00,
2013-06-13 03:50:00,64.0,64.0,29.69,NNE,22,4.0,8.0,100,0.07,,---,0.09,VWS V14.01,2013-06-13 07:50:00,
2013-06-13 03:55:00,64.0,64.0,29.69,North,360,3.0,8.0,100,0.05,,---,0.09,VWS V14.01,2013-06-13 07:55:00,
2013-06-13 04:00:00,64.0,64.0,29.70,ESE,112,4.0,6.0,100,0.03,,---,0.09,VWS V14.01,2013-06-13 08:00:00,
2013-06-13 04:05:00,63.0,63.0,29.70,ESE,112,0.0,8.0,100,0.03,,---,0.09,VWS V14.01,2013-06-13 08:05:00,
2013-06-13 04:10:00,64.0,64.0,29.70,NNE,22,5.0,6.0,100,0.03,,---,0.10,VWS V14.01,2013-06-13 08:10:00,
2013-06-13 04:15:00,64.0,64.0,29.70,NNW,337,1.0,6.0,100,0.04,,---,0.10,VWS V14.01,2013-06-13 08:15:00,
2013-06-13 04:20:00,64.0,64.0,29.70,SE,135,5.0,6.0,100,0.04,,---,0.10,VWS V14.01,2013-06-13 08:20:00,
2013-06-13 04:25:00,63.0,63.0,29.70,East,90,0.0,5.0,100,0.07,,---,0.14,VWS V14.01,2013-06-13 08:25:00,
2013-06-13 04:30:00,63.0,63.0,29.72,North,360,0.0,10.0,100,0.08,,---,0.15,VWS V14.01,2013-06-13 08:30:00,
2013-06-13 04:35:00,63.0,63.0,29.72,SE,135,3.0,6.0,100,0.08,,---,0.15,VWS V14.01,2013-06-13 08:35:00,
2013-06-13 04:40:00,63.0,63.0,29.71,NNE,22,0.0,7.0,100,0.08,,---,0.15,VWS V14.01,2013-06-13 08:40:00,
2013-06-13 04:45:00,63.0,63.0,29.71,NW,315,4.0,8.0,100,0.08,,---,0.15,VWS V14.01,2013-06-13 08:45:00,
2013-06-13 04:50:00,63.0,63.0,29.69,SSE,157,4.0,5.0,100,0.08,,---,0.16,VWS V14.01,2013-06-13 08:50:00,
2013-06-13 04:55:00,63.0,63.0,29.69,SSE,157,3.0,4.0,100,0.07,,---,0.16,VWS V14.01,2013-06-13 08:55:00,
2013-06-13 05:00:00,64.0,64.0,29.66,SSE,157,3.0,6.0,100,0.07,,---,0.16,VWS V14.01,2013-06-13 09:00:00,
2013-06-13 05:05:00,63.0,63.0,29.66,SSE,157,2.0,6.0,100,0.07,,---,0.16,VWS V14.01,2013-06-13 09:05:00,
2013-06-13 05:10:00,63.0,63.0,29.67,North,360,6.0,6.0,100,0.07,,---,0.16,VWS V14.01,2013-06-13 09:10:00,
2013-06-13 05:15:00,63.0,63.0,29.67,North,360,0.0,6.0,100,0.07,,---,0.16,VWS V14.01,2013-06-13 09:15:00,
2013-06-13 05:20:00,64.0,64.0,29.68,North,360,1.0,1.0,100,0.06,,---,0.16,VWS V14.01,2013-06-13 09:20:00,
2013-06-13 05:25:00,64.0,64.0,29.68,North,360,0.0,1.0,100,0.06,,---,0.16,VWS V14.01,2013-06-13 09:25:00,
2013-06-13 05:30:00,64.0,64.0,29.67,North,360,0.0,0.0,100,0.02,,---,0.16,VWS V14.01,2013-06-13 09:30:00,
2013-06-13 05:35:00,64.0,64.0,29.67,SSE,157,4.0,7.0,100,0.01,,---,0.16,VWS V14.01,2013-06-13 09:35:00,
2013-06-13 05:40:00,64.0,64.0,29.67,SSE,157,3.0,6.0,100,0.01,,---,0.16,VWS V14.01,2013-06-13 09:40:00,
2013-06-13 05:45:00,64.0,64.0,29.67,SSE,157,0.0,4.0,100,0.01,,---,0.16,VWS V14.01,2013-06-13 09:45:00,
2013-06-13 05:50:00,64.0,64.0,29.67,SSE,157,2.0,3.0,100,0.01,,---,0.16,VWS V14.01,2013-06-13 09:50:00,
2013-06-13 05:55:00,64.0,64.0,29.67,SSE,157,3.0,4.0,100,0.01,,---,0.16,VWS V14.01,2013-06-13 09:55:00,
2013-06-13 06:00:00,64.0,64.0,29.67,ESE,112,2.0,7.0,100,0.00,,---,0.16,VWS V14.01,2013-06-13 10:00:00,
2013-06-13 06:05:00,64.0,64.0,29.67,South,180,5.0,6.0,100,0.00,,---,0.16,VWS V14.01,2013-06-13 10:05:00,
2013-06-13 06:10:00,64.0,64.0,29.66,SE,135,0.0,6.0,100,0.00,,---,0.16,VWS V14.01,2013-06-13 10:10:00,
2013-06-13 06:15:00,64.0,64.0,29.66,SSE,157,3.0,6.0,100,0.00,,---,0.16,VWS V14.01,2013-06-13 10:15:00,
2013-06-13 06:20:00,64.0,64.0,29.67,SSE,157,6.0,9.0,100,0.01,,---,0.17,VWS V14.01,2013-06-13 10:20:00,
2013-06-13 06:25:00,64.0,64.0,29.67,South,180,3.0,9.0,100,0.01,,---,0.17,VWS V14.01,2013-06-13 10:25:00,
2013-06-13 06:30:00,64.0,64.0,29.67,SW,225,3.0,6.0,100,0.01,,---,0.17,VWS V14.01,2013-06-13 10:30:00,
2013-06-13 06:35:00,64.0,64.0,29.67,South,180,5.0,6.0,100,0.01,,---,0.17,VWS V14.01,2013-06-13 10:35:00,
2013-06-13 06:40:00,64.0,64.0,29.66,SSE,157,6.0,7.0,100,0.01,,---,0.17,VWS V14.01,2013-06-13 10:40:00,
2013-06-13 06:45:00,64.0,64.0,29.66,South,180,4.0,7.0,100,0.01,,---,0.17,VWS V14.01,2013-06-13 10:45:00,
2013-06-13 06:50:00,64.0,64.0,29.66,South,180,4.0,8.0,100,0.01,,---,0.17,VWS V14.01,2013-06-13 10:50:00,
2013-06-13 06:55:00,64.0,64.0,29.66,SSE,157,4.0,7.0,100,0.01,,---,0.17,VWS V14.01,2013-06-13 10:55:00,
2013-06-13 07:00:00,65.0,65.0,29.66,SSE,157,3.0,7.0,100,0.01,,---,0.17,VWS V14.01,2013-06-13 11:00:00,
2013-06-13 07:05:00,65.0,65.0,29.66,SSW,202,0.0,8.0,100,0.01,,---,0.17,VWS V14.01,2013-06-13 11:05:00,
2013-06-13 07:10:00,65.0,65.0,29.66,SW,225,4.0,7.0,100,0.01,,---,0.17,VWS V14.01,2013-06-13 11:10:00,
2013-06-13 07:15:00,65.0,65.0,29.66,West,270,0.0,10.0,100,0.01,,---,0.17,VWS V14.01,2013-06-13 11:15:00,
2013-06-13 07:20:00,65.0,65.0,29.65,SSE,157,6.0,7.0,100,0.01,,---,0.17,VWS V14.01,2013-06-13 11:20:00,
2013-06-13 07:25:00,65.0,65.0,29.65,SSE,157,3.0,7.0,100,0.00,,---,0.17,VWS V14.01,2013-06-13 11:25:00,
2013-06-13 07:30:00,66.0,66.0,29.65,SW,225,2.0,7.0,100,0.00,,---,0.17,VWS V14.01,2013-06-13 11:30:00,
2013-06-13 07:35:00,66.0,66.0,29.65,SSW,202,0.0,7.0,100,0.00,,---,0.17,VWS V14.01,2013-06-13 11:35:00,
2013-06-13 07:40:00,66.0,66.0,29.65,SW,225,3.0,8.0,100,0.00,,---,0.17,VWS V14.01,2013-06-13 11:40:00,
2013-06-13 07:45:00,67.0,67.0,29.65,WNW,292,4.0,5.0,100,0.00,,---,0.17,VWS V14.01,2013-06-13 11:45:00,
2013-06-13 07:50:00,67.0,67.0,29.65,NNW,337,3.0,5.0,100,0.00,,---,0.17,VWS V14.01,2013-06-13 11:50:00,
2013-06-13 07:55:00,67.0,67.0,29.65,NNW,337,3.0,4.0,100,0.00,,---,0.17,VWS V14.01,2013-06-13 11:55:00,
2013-06-13 08:00:00,67.0,67.0,29.65,NNW,337,2.0,4.0,100,0.00,,---,0.17,VWS V14.01,2013-06-13 12:00:00,
2013-06-13 08:05:00,67.0,67.0,29.65,NNW,337,1.0,2.0,100,0.00,,---,0.17,VWS V14.01,2013-06-13 12:05:00,
2013-06-13 08:10:00,68.0,68.0,29.63,NNW,337,0.0,1.0,100,0.00,,---,0.17,VWS V14.01,2013-06-13 12:10:00,
2013-06-13 08:15:00,68.0,68.0,29.63,NE,45,0.0,3.0,100,0.00,,---,0.17,VWS V14.01,2013-06-13 12:15:00,
2013-06-13 08:20:00,68.0,68.0,29.62,NE,45,0.0,2.0,100,0.00,,---,0.17,VWS V14.01,2013-06-13 12:20:00,
2013-06-13 08:25:00,67.0,67.0,29.62,NW,315,9.0,12.0,100,0.03,,---,0.24,VWS V14.01,2013-06-13 12:25:00,
2013-06-13 08:30:00,66.0,66.0,29.66,North,360,10.0,22.0,100,0.27,,---,0.51,VWS V14.01,2013-06-13 12:30:00,
2013-06-13 11:56:00,66.0,66.0,29.76,North,360,6.0,13.0,100,0.00,,---,1.33,VWS V14.01,2013-06-13 15:56:00,
2013-06-13 12:02:00,66.0,65.4,29.76,NNW,337,9.0,13.0,98,0.00,,---,1.33,VWS V14.01,2013-06-13 16:02:00,
2013-06-13 12:07:00,66.0,64.8,29.76,North,360,10.0,13.0,96,0.00,,---,1.33,VWS V14.01,2013-06-13 16:07:00,
2013-06-13 12:12:00,66.0,64.5,29.77,North,360,10.0,15.0,95,0.00,,---,1.33,VWS V14.01,2013-06-13 16:12:00,
2013-06-13 12:17:00,66.0,64.2,29.77,North,360,10.0,15.0,94,0.00,,---,1.33,VWS V14.01,2013-06-13 16:17:00,
2013-06-13 12:22:00,67.0,64.9,29.77,NNW,337,11.0,13.0,93,0.00,,---,1.33,VWS V14.01,2013-06-13 16:22:00,
2013-06-13 12:27:00,66.0,63.9,29.77,NW,315,9.0,14.0,93,0.00,,---,1.33,VWS V14.01,2013-06-13 16:27:00,
2013-06-13 12:32:00,66.0,64.5,29.78,NNE,22,7.0,13.0,95,0.00,,---,1.33,VWS V14.01,2013-06-13 16:32:00,
2013-06-13 12:37:00,65.0,63.8,29.78,WNW,292,9.0,11.0,96,0.00,,---,1.33,VWS V14.01,2013-06-13 16:37:00,
2013-06-13 12:42:00,65.0,64.4,29.78,North,360,7.0,12.0,98,0.00,,---,1.33,VWS V14.01,2013-06-13 16:42:00,
2013-06-13 12:47:00,65.0,64.4,29.78,North,360,9.0,13.0,98,0.00,,---,1.33,VWS V14.01,2013-06-13 16:47:00,
2013-06-13 12:52:00,66.0,65.4,29.78,NNE,22,4.0,15.0,98,0.00,,---,1.33,VWS V14.01,2013-06-13 16:52:00,
2013-06-13 12:57:00,65.0,64.4,29.78,North,360,10.0,12.0,98,0.00,,---,1.33,VWS V14.01,2013-06-13 16:57:00,
2013-06-13 13:02:00,66.0,63.6,29.79,North,360,12.0,15.0,92,0.00,,---,1.33,VWS V14.01,2013-06-13 17:02:00,
2013-06-13 13:08:00,68.0,63.7,29.79,NNE,22,4.0,19.0,86,0.00,,---,1.33,VWS V14.01,2013-06-13 17:08:00,
2013-06-13 13:13:00,67.0,60.6,29.79,North,360,16.0,19.0,80,0.00,,---,1.33,VWS V14.01,2013-06-13 17:13:00,
2013-06-13 13:18:00,67.0,61.7,29.79,NNE,22,4.0,12.0,83,0.00,,---,1.33,VWS V14.01,2013-06-13 17:18:00,
2013-06-13 13:23:00,68.0,61.6,29.80,North,360,9.0,13.0,80,0.00,,---,1.33,VWS V14.01,2013-06-13 17:23:00,
2013-06-13 13:28:00,69.0,60.8,29.80,NNE,22,12.0,14.0,75,0.00,,---,1.33,VWS V14.01,2013-06-13 17:28:00,
2013-06-13 13:33:00,69.0,61.1,29.79,North,360,9.0,14.0,76,0.00,,---,1.33,VWS V14.01,2013-06-13 17:33:00,
2013-06-13 13:38:00,69.0,60.8,29.79,WNW,292,9.0,14.0,75,0.00,,---,1.33,VWS V14.01,2013-06-13 17:38:00,
2013-06-13 13:43:00,69.0,59.6,29.79,NW,315,10.0,16.0,72,0.00,,---,1.33,VWS V14.01,2013-06-13 17:43:00,
2013-06-13 13:48:00,69.0,59.2,29.79,North,360,6.0,10.0,71,0.00,,---,1.33,VWS V14.01,2013-06-13 17:48:00,
2013-06-13 13:53:00,69.0,59.6,29.79,North,360,6.0,11.0,72,0.00,,---,1.33,VWS V14.01,2013-06-13 17:53:00,
2013-06-13 13:58:00,69.0,58.8,29.80,North,360,10.0,13.0,70,0.00,,---,1.33,VWS V14.01,2013-06-13 17:58:00,
2013-06-13 14:03:00,69.0,59.6,29.80,NNW,337,12.0,16.0,72,0.00,,---,1.33,VWS V14.01,2013-06-13 18:03:00,
2013-06-13 14:09:00,69.0,59.6,29.81,NNW,337,8.0,13.0,72,0.00,,---,1.33,VWS V14.01,2013-06-13 18:09:00,
2013-06-13 14:14:00,69.0,57.2,29.81,NNW,337,13.0,18.0,66,0.00,,---,1.33,VWS V14.01,2013-06-13 18:14:00,
2013-06-13 14:19:00,69.0,58.0,29.81,North,360,11.0,19.0,68,0.00,,---,1.33,VWS V14.01,2013-06-13 18:19:00,
2013-06-13 14:24:00,69.0,57.6,29.81,NNE,22,7.0,13.0,67,0.00,,---,1.33,VWS V14.01,2013-06-13 18:24:00,
2013-06-13 14:29:00,70.0,58.1,29.81,NNW,337,11.0,13.0,66,0.00,,---,1.33,VWS V14.01,2013-06-13 18:29:00,
2013-06-13 14:34:00,69.0,56.8,29.81,NNW,337,8.0,15.0,65,0.00,,---,1.33,VWS V14.01,2013-06-13 18:34:00,
2013-06-13 14:39:00,70.0,57.7,29.81,North,360,8.0,13.0,65,0.00,,---,1.33,VWS V14.01,2013-06-13 18:39:00,
2013-06-13 14:44:00,70.0,56.8,29.81,NNW,337,11.0,17.0,63,0.00,,---,1.33,VWS V14.01,2013-06-13 18:44:00,
2013-06-13 14:49:00,70.0,56.8,29.81,NNW,337,14.0,17.0,63,0.00,,---,1.33,VWS V14.01,2013-06-13 18:49:00,
2013-06-13 14:54:00,70.0,57.3,29.81,NNW,337,10.0,16.0,64,0.00,,---,1.33,VWS V14.01,2013-06-13 18:54:00,
2013-06-13 14:59:00,70.0,56.8,29.82,North,360,11.0,20.0,63,0.00,,---,1.33,VWS V14.01,2013-06-13 18:59:00,
2013-06-13 15:05:00,70.0,56.0,29.82,North,360,14.0,17.0,61,0.00,,---,1.33,VWS V14.01,2013-06-13 19:05:00,
2013-06-13 15:10:00,70.0,55.0,29.82,North,360,16.0,19.0,59,0.00,,---,1.33,VWS V14.01,2013-06-13 19:10:00,
2013-06-13 15:15:00,70.0,56.8,29.82,NNW,337,8.0,17.0,63,0.00,,---,1.33,VWS V14.01,2013-06-13 19:15:00,
2013-06-13 15:20:00,71.0,54.5,29.82,NNW,337,13.0,22.0,56,0.00,,---,1.33,VWS V14.01,2013-06-13 19:20:00,
2013-06-13 15:25:00,71.0,55.5,29.82,NNW,337,13.0,14.0,58,0.00,,---,1.33,VWS V14.01,2013-06-13 19:25:00,
2013-06-13 15:30:00,72.0,56.0,29.82,North,360,14.0,15.0,57,0.00,,---,1.33,VWS V14.01,2013-06-13 19:30:00,
2013-06-13 15:35:00,71.0,54.5,29.82,NNW,337,7.0,17.0,56,0.00,,---,1.33,VWS V14.01,2013-06-13 19:35:00,
2013-06-13 15:40:00,72.0,55.5,29.82,NNW,337,13.0,15.0,56,0.00,,---,1.33,VWS V14.01,2013-06-13 19:40:00,
2013-06-13 15:45:00,72.0,55.0,29.82,NW,315,9.0,15.0,55,0.00,,---,1.33,VWS V14.01,2013-06-13 19:45:00,
2013-06-13 15:50:00,72.0,55.0,29.83,NW,315,11.0,17.0,55,0.00,,---,1.33,VWS V14.01,2013-06-13 19:50:00,
2013-06-13 15:55:00,72.0,52.9,29.83,North,360,17.0,20.0,51,0.00,,---,1.33,VWS V14.01,2013-06-13 19:55:00,
2013-06-13 16:00:00,72.0,55.0,29.83,North,360,10.0,18.0,55,0.00,,---,1.33,VWS V14.01,2013-06-13 20:00:00,
2013-06-13 16:05:00,71.0,55.5,29.83,WNW,292,8.0,18.0,58,0.00,,---,1.33,VWS V14.01,2013-06-13 20:05:00,
2013-06-13 16:10:00,72.0,55.0,29.84,NW,315,12.0,20.0,55,0.00,,---,1.33,VWS V14.01,2013-06-13 20:10:00,
2013-06-13 16:15:00,73.0,58.3,29.84,WNW,292,14.0,16.0,60,0.00,,---,1.33,VWS V14.01,2013-06-13 20:15:00,
2013-06-13 16:20:00,72.0,55.0,29.83,North,360,10.0,19.0,55,0.00,,---,1.33,VWS V14.01,2013-06-13 20:20:00,
2013-06-13 16:25:00,72.0,54.5,29.83,NNW,337,10.0,17.0,54,0.00,,---,1.33,VWS V14.01,2013-06-13 20:25:00,
2013-06-13 16:30:00,72.0,55.5,29.84,North,360,9.0,17.0,56,0.00,,---,1.33,VWS V14.01,2013-06-13 20:30:00,
2013-06-13 16:35:00,72.0,55.5,29.84,North,360,13.0,15.0,56,0.00,,---,1.33,VWS V14.01,2013-06-13 20:35:00,
2013-06-13 16:40:00,71.0,53.5,29.83,NW,315,11.0,14.0,54,0.00,,---,1.33,VWS V14.01,2013-06-13 20:40:00,
2013-06-13 16:45:00,72.0,55.0,29.83,NNE,22,8.0,16.0,55,0.00,,---,1.33,VWS V14.01,2013-06-13 20:45:00,
2013-06-13 16:50:00,73.0,55.9,29.84,North,360,8.0,17.0,55,0.00,,---,1.33,VWS V14.01,2013-06-13 20:50:00,
2013-06-13 16:55:00,73.0,55.4,29.84,North,360,10.0,15.0,54,0.00,,---,1.33,VWS V14.01,2013-06-13 20:55:00,
2013-06-13 17:00:00,73.0,55.9,29.83,NNW,337,7.0,15.0,55,0.00,,---,1.33,VWS V14.01,2013-06-13 21:00:00,
2013-06-13 17:05:00,73.0,55.9,29.83,North,360,12.0,18.0,55,0.00,,---,1.33,VWS V14.01,2013-06-13 21:05:00,
2013-06-13 17:10:00,73.0,55.4,29.83,NNW,337,10.0,18.0,54,0.00,,---,1.33,VWS V14.01,2013-06-13 21:10:00,
2013-06-13 17:15:00,73.0,55.9,29.83,North,360,11.0,17.0,55,0.00,,---,1.33,VWS V14.01,2013-06-13 21:15:00,
2013-06-13 17:20:00,73.0,54.9,29.83,NW,315,10.0,15.0,53,0.00,,---,1.33,VWS V14.01,2013-06-13 21:20:00,
2013-06-13 17:25:00,73.0,54.9,29.83,North,360,7.0,16.0,53,0.00,,---,1.33,VWS V14.01,2013-06-13 21:25:00,
2013-06-13 17:30:00,73.0,54.9,29.83,NW,315,11.0,13.0,53,0.00,,---,1.33,VWS V14.01,2013-06-13 21:30:00,
2013-06-13 17:35:00,74.0,55.8,29.83,NNW,337,7.0,14.0,53,0.00,,---,1.33,VWS V14.01,2013-06-13 21:35:00,
2013-06-13 17:40:00,73.0,54.4,29.83,North,360,12.0,16.0,52,0.00,,---,1.33,VWS V14.01,2013-06-13 21:40:00,
2013-06-13 17:45:00,72.0,54.0,29.83,NNW,337,12.0,17.0,53,0.00,,---,1.33,VWS V14.01,2013-06-13 21:45:00,
2013-06-13 17:50:00,71.0,54.0,29.84,North,360,8.0,13.0,55,0.00,,---,1.33,VWS V14.01,2013-06-13 21:50:00,
2013-06-13 17:55:00,71.0,54.0,29.84,NNW,337,11.0,14.0,55,0.00,,---,1.33,VWS V14.01,2013-06-13 21:55:00,
2013-06-13 18:00:00,71.0,54.5,29.84,NW,315,10.0,15.0,56,0.00,,---,1.33,VWS V14.01,2013-06-13 22:00:00,
2013-06-13 18:05:00,71.0,54.5,29.84,North,360,8.0,16.0,56,0.00,,---,1.33,VWS V14.01,2013-06-13 22:05:00,
2013-06-13 18:10:00,72.0,55.0,29.84,North,360,9.0,16.0,55,0.00,,---,1.33,VWS V14.01,2013-06-13 22:10:00,
2013-06-13 18:15:00,72.0,55.0,29.84,NW,315,9.0,14.0,55,0.00,,---,1.33,VWS V14.01,2013-06-13 22:15:00,
2013-06-13 18:20:00,72.0,54.0,29.84,North,360,11.0,17.0,53,0.00,,---,1.33,VWS V14.01,2013-06-13 22:20:00,
2013-06-13 18:25:00,73.0,54.4,29.84,NNW,337,13.0,16.0,52,0.00,,---,1.33,VWS V14.01,2013-06-13 22:25:00,
2013-06-13 18:30:00,73.0,54.4,29.84,WNW,292,7.0,15.0,52,0.00,,---,1.33,VWS V14.01,2013-06-13 22:30:00,
2013-06-13 18:36:00,73.0,54.4,29.84,NNW,337,4.0,9.0,52,0.00,,---,1.33,VWS V14.01,2013-06-13 22:36:00,
2013-06-13 18:41:00,73.0,53.8,29.83,WNW,292,9.0,14.0,51,0.00,,---,1.33,VWS V14.01,2013-06-13 22:41:00,
2013-06-13 18:46:00,73.0,53.3,29.83,NNW,337,11.0,14.0,50,0.00,,---,1.33,VWS V14.01,2013-06-13 22:46:00,
2013-06-13 18:51:00,73.0,53.3,29.83,NNW,337,7.0,9.0,50,0.00,,---,1.33,VWS V14.01,2013-06-13 22:51:00,
2013-06-13 18:56:00,73.0,53.3,29.83,NW,315,10.0,12.0,50,0.00,,---,1.33,VWS V14.01,2013-06-13 22:56:00,
2013-06-13 19:01:00,73.0,53.3,29.84,North,360,8.0,12.0,50,0.00,,---,1.33,VWS V14.01,2013-06-13 23:01:00,
2013-06-13 19:06:00,73.0,52.2,29.84,NW,315,11.0,15.0,48,0.00,,---,1.33,VWS V14.01,2013-06-13 23:06:00,
2013-06-13 19:37:00,72.0,52.4,29.84,NNW,337,11.0,14.0,50,0.00,,---,1.33,VWS V14.01,2013-06-13 23:37:00,
2013-06-13 19:42:00,72.0,52.4,29.84,NW,315,8.0,14.0,50,0.00,,---,1.33,VWS V14.01,2013-06-13 23:42:00,
2013-06-13 19:47:00,72.0,52.4,29.84,North,360,10.0,14.0,50,0.00,,---,1.33,VWS V14.01,2013-06-13 23:47:00,
2013-06-13 19:52:00,72.0,53.4,29.85,NW,315,7.0,13.0,52,0.00,,---,1.33,VWS V14.01,2013-06-13 23:52:00,
2013-06-13 19:58:00,72.0,52.4,29.85,NNW,337,6.0,12.0,50,0.00,,---,1.33,VWS V14.01,2013-06-13 23:58:00,
2013-06-13 20:03:00,72.0,52.9,29.85,NNW,337,7.0,15.0,51,0.00,,---,1.33,VWS V14.01,2013-06-14 00:03:00,
2013-06-13 20:08:00,72.0,52.9,29.85,NNW,337,6.0,13.0,51,0.00,,---,1.33,VWS V14.01,2013-06-14 00:08:00,
2013-06-13 20:13:00,71.0,52.5,29.85,NNW,337,8.0,12.0,52,0.00,,---,1.33,VWS V14.01,2013-06-14 00:13:00,
2013-06-13 20:18:00,71.0,52.0,29.85,NW,315,6.0,12.0,51,0.00,,---,1.33,VWS V14.01,2013-06-14 00:18:00,
2013-06-13 20:23:00,71.0,52.5,29.86,NNW,337,9.0,10.0,52,0.00,,---,1.33,VWS V14.01,2013-06-14 00:23:00,
2013-06-13 20:28:00,71.0,52.5,29.86,NNW,337,6.0,12.0,52,0.00,,---,1.33,VWS V14.01,2013-06-14 00:28:00,
2013-06-13 20:33:00,71.0,53.0,29.86,WNW,292,6.0,11.0,53,0.00,,---,1.33,VWS V14.01,2013-06-14 00:33:00,
2013-06-13 20:38:00,70.0,52.1,29.86,NW,315,10.0,10.0,53,0.00,,---,1.33,VWS V14.01,2013-06-14 00:38:00,
2013-06-13 20:43:00,70.0,52.6,29.86,NNW,337,6.0,10.0,54,0.00,,---,1.33,VWS V14.01,2013-06-14 00:43:00,
2013-06-13 20:48:00,70.0,52.6,29.87,NNW,337,5.0,8.0,54,0.00,,---,1.33,VWS V14.01,2013-06-14 00:48:00,
2013-06-13 20:53:00,69.0,52.2,29.87,NW,315,4.0,9.0,55,0.00,,---,1.33,VWS V14.01,2013-06-14 00:53:00,
2013-06-13 20:59:00,69.0,52.7,29.87,NNW,337,5.0,9.0,56,0.00,,---,1.33,VWS V14.01,2013-06-14 00:59:00,
2013-06-13 21:04:00,69.0,53.6,29.87,NW,315,4.0,7.0,58,0.00,,---,1.33,VWS V14.01,2013-06-14 01:04:00,
2013-06-13 21:09:00,68.0,53.2,29.88,NW,315,4.0,7.0,59,0.00,,---,1.33,VWS V14.01,2013-06-14 01:09:00,
2013-06-13 21:14:00,67.0,52.7,29.88,NW,315,4.0,5.0,60,0.00,,---,1.33,VWS V14.01,2013-06-14 01:14:00,
2013-06-13 21:19:00,67.0,53.6,29.88,NW,315,4.0,5.0,62,0.00,,---,1.33,VWS V14.01,2013-06-14 01:19:00,
2013-06-13 21:24:00,66.0,53.5,29.88,NW,315,3.0,5.0,64,0.00,,---,1.33,VWS V14.01,2013-06-14 01:24:00,
2013-06-13 21:29:00,66.0,53.9,29.89,WNW,292,6.0,6.0,65,0.00,,---,1.33,VWS V14.01,2013-06-14 01:29:00,
2013-06-13 21:34:00,66.0,54.7,29.89,NW,315,3.0,5.0,67,0.00,,---,1.33,VWS V14.01,2013-06-14 01:34:00,
2013-06-13 21:39:00,66.0,55.2,29.89,NW,315,4.0,8.0,68,0.00,,---,1.33,VWS V14.01,2013-06-14 01:39:00,
2013-06-13 21:44:00,66.0,55.2,29.89,NW,315,5.0,12.0,68,0.00,,---,1.33,VWS V14.01,2013-06-14 01:44:00,
2013-06-13 21:49:00,66.0,55.5,29.90,WNW,292,6.0,10.0,69,0.00,,---,1.33,VWS V14.01,2013-06-14 01:49:00,
2013-06-13 21:54:00,66.0,55.5,29.90,NW,315,8.0,11.0,69,0.00,,---,1.33,VWS V14.01,2013-06-14 01:54:00,
2013-06-13 22:00:00,66.0,55.5,29.90,NW,315,5.0,10.0,69,0.00,,---,1.33,VWS V14.01,2013-06-14 02:00:00,
2013-06-13 22:05:00,66.0,56.0,29.90,NNW,337,4.0,11.0,70,0.00,,---,1.33,VWS V14.01,2013-06-14 02:05:00,
2013-06-13 22:10:00,66.0,55.5,29.91,WNW,292,5.0,11.0,69,0.00,,---,1.33,VWS V14.01,2013-06-14 02:10:00,
2013-06-13 22:15:00,66.0,55.5,29.91,NW,315,7.0,12.0,69,0.00,,---,1.33,VWS V14.01,2013-06-14 02:15:00,
2013-06-13 22:20:00,66.0,55.2,29.92,NNW,337,9.0,11.0,68,0.00,,---,1.33,VWS V14.01,2013-06-14 02:20:00,
2013-06-13 22:25:00,66.0,54.7,29.92,NW,315,10.0,10.0,67,0.00,,---,1.33,VWS V14.01,2013-06-14 02:25:00,
2013-06-13 22:30:00,66.0,55.5,29.92,NW,315,5.0,8.0,69,0.00,,---,1.33,VWS V14.01,2013-06-14 02:30:00,
2013-06-13 22:35:00,65.0,55.0,29.92,NW,315,5.0,8.0,70,0.00,,---,1.33,VWS V14.01,2013-06-14 02:35:00,
2013-06-13 22:40:00,65.0,55.8,29.93,WNW,292,5.0,9.0,72,0.00,,---,1.33,VWS V14.01,2013-06-14 02:40:00,
2013-06-13 22:45:00,64.0,55.2,29.93,NW,315,6.0,7.0,73,0.00,,---,1.33,VWS V14.01,2013-06-14 02:45:00,
2013-06-13 22:50:00,64.0,54.8,29.93,NW,315,5.0,11.0,72,0.00,,---,1.33,VWS V14.01,2013-06-14 02:50:00,
2013-06-13 22:55:00,64.0,54.8,29.93,WNW,292,6.0,8.0,72,0.00,,---,1.33,VWS V14.01,2013-06-14 02:55:00,
2013-06-13 23:00:00,64.0,54.8,29.93,WNW,292,4.0,10.0,72,0.00,,---,1.33,VWS V14.01,2013-06-14 03:00:00,
2013-06-13 23:05:00,64.0,54.8,29.93,WNW,292,6.0,9.0,72,0.00,,---,1.33,VWS V14.01,2013-06-14 03:05:00,
2013-06-13 23:06:00,62.0,52.9,29.95,NW,315,5.0,7.0,72,0.00,,---,1.33,VWS V14.01,2013-06-14 03:06:00,
2013-06-13 23:07:00,62.0,53.3,29.95,NW,315,4.0,8.0,73,0.00,,---,1.33,VWS V14.01,2013-06-14 03:07:00,
2013-06-13 23:08:00,62.0,53.3,29.95,NW,315,4.0,8.0,73,0.00,,---,1.33,VWS V14.01,2013-06-14 03:08:00,
2013-06-13 23:09:00,62.0,53.3,29.95,NW,315,3.0,8.0,73,0.00,,---,1.33,VWS V14.01,2013-06-14 03:09:00,
2013-06-13 23:10:00,64.0,54.0,29.93,NW,315,7.0,10.0,70,0.00,,---,1.33,VWS V14.01,2013-06-14 03:10:00,
2013-06-13 23:11:00,62.0,53.3,29.95,NW,315,5.0,7.0,73,0.00,,---,1.33,VWS V14.01,2013-06-14 03:11:00,
2013-06-13 23:12:00,62.0,53.6,29.95,NW,315,5.0,8.0,74,0.00,,---,1.33,VWS V14.01,2013-06-14 03:12:00,
2013-06-13 23:13:00,62.0,53.3,29.95,NW,315,7.0,8.0,73,0.00,,---,1.33,VWS V14.01,2013-06-14 03:13:00,
2013-06-13 23:14:00,62.0,53.6,29.95,WNW,292,3.0,8.0,74,0.00,,---,1.33,VWS V14.01,2013-06-14 03:14:00,
2013-06-13 23:15:00,64.0,54.0,29.93,WNW,292,6.0,10.0,70,0.00,,---,1.33,VWS V14.01,2013-06-14 03:15:00,
2013-06-13 23:16:00,62.0,53.6,29.95,NW,315,4.0,6.0,74,0.00,,---,1.33,VWS V14.01,2013-06-14 03:16:00,
2013-06-13 23:17:00,62.0,53.6,29.95,WNW,292,6.0,6.0,74,0.00,,---,1.33,VWS V14.01,2013-06-14 03:17:00,
2013-06-13 23:18:00,62.0,53.6,29.95,NW,315,6.0,7.0,74,0.00,,---,1.33,VWS V14.01,2013-06-14 03:18:00,
2013-06-13 23:19:00,61.0,52.7,29.95,NNW,337,8.0,8.0,74,0.00,,---,1.33,VWS V14.01,2013-06-14 03:19:00,
2013-06-13 23:20:00,64.0,54.4,29.94,North,360,5.0,10.0,71,0.00,,---,1.33,VWS V14.01,2013-06-14 03:20:00,
2013-06-13 23:21:00,61.0,52.7,29.95,NNW,337,5.0,10.0,74,0.00,,---,1.33,VWS V14.01,2013-06-14 03:21:00,
2013-06-13 23:22:00,61.0,52.7,29.95,NNW,337,6.0,10.0,74,0.00,,---,1.33,VWS V14.01,2013-06-14 03:22:00,
2013-06-13 23:23:00,62.0,53.3,29.95,WNW,292,10.0,10.0,73,0.00,,---,1.33,VWS V14.01,2013-06-14 03:23:00,
2013-06-13 23:24:00,61.0,52.7,29.95,North,360,5.0,10.0,74,0.00,,---,1.33,VWS V14.01,2013-06-14 03:24:00,
2013-06-13 23:25:00,63.0,53.8,29.94,WNW,292,7.0,8.0,72,0.00,,---,1.33,VWS V14.01,2013-06-14 03:25:00,
2013-06-13 23:26:00,61.0,52.7,29.95,North,360,6.0,10.0,74,0.00,,---,1.33,VWS V14.01,2013-06-14 03:26:00,
2013-06-13 23:27:00,61.0,51.9,29.95,WNW,292,13.0,13.0,72,0.00,,---,1.33,VWS V14.01,2013-06-14 03:27:00,
2013-06-13 23:28:00,62.0,52.9,29.95,NNW,337,10.0,13.0,72,0.00,,---,1.33,VWS V14.01,2013-06-14 03:28:00,
2013-06-13 23:29:00,62.0,52.9,29.95,NW,315,8.0,13.0,72,0.00,,---,1.33,VWS V14.01,2013-06-14 03:29:00,
2013-06-13 23:30:00,63.0,53.8,29.94,NW,315,5.0,10.0,72,0.00,,---,1.33,VWS V14.01,2013-06-14 03:30:00,
2013-06-13 23:32:00,62.0,52.1,29.95,NW,315,8.0,13.0,70,0.00,,---,1.33,VWS V14.01,2013-06-14 03:32:00,
2013-06-13 23:34:00,62.0,52.5,29.95,NNW,337,8.0,13.0,71,0.00,,---,1.33,VWS V14.01,2013-06-14 03:34:00,
2013-06-13 23:35:00,63.0,54.2,29.94,NW,315,6.0,7.0,73,0.00,,---,1.33,VWS V14.01,2013-06-14 03:35:00,
2013-06-13 23:40:00,63.0,53.8,29.93,NW,315,9.0,12.0,72,0.00,,---,1.33,VWS V14.01,2013-06-14 03:40:00,
2013-06-13 23:45:00,63.0,53.5,29.93,NW,315,5.0,12.0,71,0.00,,---,1.33,VWS V14.01,2013-06-14 03:45:00,
2013-06-13 23:50:00,63.0,53.8,29.94,NW,315,5.0,10.0,72,0.00,,---,1.33,VWS V14.01,2013-06-14 03:50:00,
2013-06-13 23:55:00,62.0,52.9,29.94,NW,315,5.0,9.0,72,0.00,,---,1.33,VWS V14.01,2013-06-14 03:55:00,